Regional Weather Roundup
Issued by NWS

Home | Current Version | Previous Version | Graphics & Text | Print | Product List | Glossary On
Versions: 1 2 3 4 5 6 7 8 9 10 11 12 13 14 15 16 17 18 19 20 21 22 23 24 25 26
000
ASUS45 KSLC 230910
RWRUT

UTAH REGIONAL WEATHER ROUNDUP
NATIONAL WEATHER SERVICE SALT LAKE CITY UT
300 AM MDT FRI JUN 23 2017

UTZ001>011-023>025-231000-

NORTHERN UTAH

CITY           SKY/WX    TMP DP  RH WIND       PRES   REMARKS
BRIGHAM CITY   CLEAR     59  32  36 NW5       30.12R
HILL AFB       CLEAR     60  35  39 SE8       30.11S
LOGAN          CLEAR     52  41  66 CALM      30.13S
OGDEN          CLEAR     63  34  33 N12       30.09R
SALT LAKE CITY CLEAR     63  41  44 W7        30.08R
TOOELE VALLEY  CLEAR     55  41  58 S3        30.11S
WENDOVER         N/A     68  15  13 VRB7      30.12R
HEBER CITY     CLEAR     43  36  75 CALM      30.17S
WEST JORDAN    CLEAR     64  36  35 NW5       30.11S

$$

UTZ011>015-024>027-231000-

CENTRAL/NORTHEAST UTAH

CITY           SKY/WX    TMP DP  RH WIND       PRES   REMARKS
PROVO AIRPORT  CLEAR     60  42  51 SE9       30.10R
MOAB/CANYONLAN CLEAR     69  25  19 N3        29.99R
DELTA          CLEAR     63  27  25 N8        30.10R
PRICE          PTCLDY    62  22  21 NW10      30.13S
RICHFIELD      CLEAR     55  41  58 CALM      30.16R
ROOSEVELT      CLEAR     55  32  41 SW6       30.12S
VERNAL         CLEAR     66  33  29 NE13G21   30.12R

$$

UTZ013>016-019>022-027-231000-

SOUTHERN UTAH

CITY           SKY/WX    TMP DP  RH WIND       PRES   REMARKS
BRYCE CANYON   CLEAR     48  33  56 CALM      30.27S
CEDAR CITY     CLEAR     61  34  36 CALM      30.12R
MILFORD        CLEAR     60  23  24 CALM      30.10R
ST GEORGE      SUNNY     86  32  14 N7        29.85R
HANKSVILLE     CLEAR     72  23  16 N7        30.02R
KANAB          CLEAR     66  36  32 NE7       30.06R
BLANDING       CLEAR     64  31  28 NW8       30.13R

$$

REGIONAL REPORTS     COLORADO/ARIZONA

CITY           SKY/WX    TMP DP  RH WIND       PRES   REMARKS
CRAIG, CO      CLEAR     52  36  54 S8        30.17R
GRAND JUNCTION CLEAR     74  30  19 N7        30.01R
RIFLE, CO      CLEAR     56  38  50 CALM      30.09R
MONTROSE, CO   CLEAR     61  36  39 SE8       30.07R
CORTEZ, CO     CLEAR     57  36  45 E7        30.06S
COLORADO CITY    N/A     61  30  31 SE5       30.04R
PAGE, AZ       CLEAR     83  32  16 NW5       29.94S
GRAND CANYON   CLEAR     51  23  33 NE3       30.20
KINGMAN, AZ    CLEAR     78  41  26 SW10      29.90S
FLAGSTAFF, AZ  CLEAR     54  29  38 CALM      30.21F

$$

REGIONAL REPORTS    NEVADA/IDAHO/WYOMING

CITY           SKY/WX    TMP DP  RH WIND       PRES   REMARKS
LAS VEGAS, NV  CLEAR     98  22   6 S6        29.73S HX  91
ELY, NY        CLEAR     60  24  25 N9        30.21R
ELKO, NV       CLEAR     51  35  54 SW3       30.19F
POCATELLO, ID  CLEAR     50  35  56 NW3       30.18R
BURLEY, ID     CLEAR     54  37  52 CALM      30.16R
FORT BRIDGER,    N/A     53  35  49 CALM      30.29S
EVANSTON, WY   CLOUDY    55  33  43 E6        30.26S
ROCK SPRINGS,  CLEAR     50  27  40 NE22      30.27S
KEMMERER, WY     N/A     50  27  40 E8G21     30.29R

$$




USA.gov is the U.S. government's official web portal to all federal, state and local government web resources and services.